Sturgis, MI

12:47 PM EST on December 05, 2019 (GMT -0500)
Kirsch Municipal

Weather History for KIRS - October, 2019

Change the Weather History Date:

Wednesday, October 16, 2019

  Actual Average (WUND) Record (WUND)
Temperature  
Mean Temperature 48 °F -  
Max Temperature 53 °F - - (-1)
Min Temperature 44 °F - - (-1)
Degree Days  
Heating Degree Days 16    
Moisture  
Dew Point 42 °F    
Average Humidity 79    
Maximum Humidity 89    
Minimum Humidity 63    
Precipitation  
Precipitation 0.02 in - - ()
Sea Level Pressure  
Sea Level Pressure 29.77 in    
Wind  
Wind Speed 10 mph ()    
Max Wind Speed 20 mph    
Max Gust Speed 31 mph    
Visibility 8.5 miles    
Events Rain    
Averages and records for this station are not official NWS values.
T = Trace of Precipitation, MM = Missing Value Source: Averaged Metar Reports

Daily Weather History Graph

Daily Weather History Graph

Search for Another Location

Airport or City:

Astronomy

Oct. 16, 2019 Rise Set
Actual Time 7:54 AM EDT 6:59 PM EDT
Civil Twilight 7:26 AM EDT 7:27 PM EDT
Nautical Twilight 6:54 AM EDT 7:59 PM EDT
Astronomical Twilight 6:22 AM EDT 8:31 PM EDT
Moon 8:50 PM EDT (10/16) 10:26 AM EDT (10/16)
Length of Visible Light 12h 00m
Length of Day
11h 04m
Waning Gibbous, 93% of the Moon is Illuminated
Oct 16
Waning Gibbous
Oct 21
Last Quarter
Oct 27
New
Nov 4
First Quarter
Nov 12
Full

Hourly Weather History & Observations

Time (EDT) Temp. Windchill Dew Point Humidity Pressure Visibility Wind Dir Wind Speed Gust Speed Precip Events Conditions
12:19 AM 53.6 °F - 49.1 °F 85% 29.71 in 10.0 mi WNW 11.5 mph 21.9 mph N/A Rain Light Rain
12:37 AM 53.1 °F - 49.1 °F 86% 29.71 in 10.0 mi WNW 6.9 mph 10.4 mph N/A Rain Light Rain
12:55 AM 52.7 °F - 47.8 °F 84% 29.72 in 10.0 mi WNW 8.1 mph - 0.01 in   Overcast
12:56 AM 52.7 °F - 47.7 °F 83% 29.72 in 10.0 mi WNW 9.2 mph - 0.01 in   Overcast
1:15 AM 52.2 °F - 46.8 °F 82% 29.72 in 10.0 mi WNW 5.8 mph - N/A   Overcast
1:35 AM 51.6 °F - 45.0 °F 78% 29.72 in 10.0 mi WNW 9.2 mph - N/A   Overcast
1:58 AM 51.1 °F - 43.7 °F 76% 29.72 in 10.0 mi WNW 8.1 mph 16.1 mph N/A   Mostly Cloudy
2:16 AM 50.9 °F - 42.8 °F 74% 29.72 in 10.0 mi NW 6.9 mph - N/A   Scattered Clouds
2:35 AM 50.5 °F - 42.1 °F 73% 29.72 in 10.0 mi West 8.1 mph - N/A   Scattered Clouds
2:55 AM 50.2 °F - 42.3 °F 74% 29.72 in 10.0 mi West 6.9 mph - N/A   Mostly Cloudy
3:19 AM 50.4 °F - 43.2 °F 76% 29.72 in 10.0 mi West 11.5 mph 16.1 mph N/A   Overcast
3:37 AM 49.3 °F - 41.2 °F 74% 29.72 in 10.0 mi West 11.5 mph 23.0 mph N/A   Mostly Cloudy
3:55 AM 48.4 °F - 40.6 °F 75% 29.72 in 10.0 mi West 9.2 mph 20.7 mph N/A   Scattered Clouds
4:15 AM 47.8 °F - 39.7 °F 74% 29.71 in 10.0 mi West 9.2 mph - N/A   Scattered Clouds
4:16 AM 47.8 °F - 39.7 °F 74% 29.71 in 10.0 mi West 9.2 mph - N/A   Scattered Clouds
4:35 AM 48.4 °F - 39.9 °F 73% 29.70 in 10.0 mi West 8.1 mph - N/A   Mostly Cloudy
4:58 AM 48.4 °F - 39.6 °F 72% 29.70 in 10.0 mi WNW 6.9 mph - N/A   Overcast
5:16 AM 48.6 °F - 37.8 °F 66% 29.70 in 10.0 mi WNW 10.4 mph 18.4 mph N/A   Overcast
5:35 AM 48.2 °F - 36.7 °F 64% 29.70 in 10.0 mi WNW 12.7 mph 21.9 mph N/A   Overcast
5:55 AM 47.8 °F - 35.8 °F 63% 29.70 in 10.0 mi West 11.5 mph - N/A   Overcast
6:19 AM 47.7 °F - 35.6 °F 63% 29.69 in 10.0 mi West 11.5 mph 19.6 mph N/A   Overcast
6:37 AM 47.7 °F - 35.4 °F 63% 29.69 in 10.0 mi WNW 9.2 mph 18.4 mph N/A   Overcast
6:55 AM 47.5 °F - 35.8 °F 64% 29.69 in 10.0 mi WNW 12.7 mph 24.2 mph N/A   Overcast
7:15 AM 47.3 °F - 36.1 °F 65% 29.69 in 10.0 mi WNW 12.7 mph 20.7 mph N/A   Overcast
7:35 AM 46.4 °F 40.1 °F 37.4 °F 71% 29.69 in 10.0 mi WNW 15.0 mph 26.5 mph N/A   Overcast
7:40 AM 46.4 °F 40.1 °F 37.6 °F 71% 29.69 in 10.0 mi WNW 15.0 mph 26.5 mph N/A   Overcast
7:58 AM 45.9 °F 39.7 °F 38.3 °F 75% 29.69 in 10.0 mi WNW 13.8 mph 23.0 mph N/A   Overcast
8:16 AM 45.5 °F 39.9 °F 38.8 °F 78% 29.69 in 10.0 mi WNW 11.5 mph 23.0 mph N/A   Overcast
8:35 AM 45.0 °F 38.5 °F 39.7 °F 82% 29.69 in 7.0 mi WNW 13.8 mph 19.6 mph N/A   Overcast
8:55 AM 45.0 °F 38.9 °F 40.3 °F 84% 29.69 in 5.0 mi WNW 12.7 mph 17.3 mph N/A   Haze
8:56 AM 45.0 °F 38.9 °F 40.5 °F 84% 29.69 in 4.0 mi West 12.7 mph 17.3 mph N/A   Haze
9:19 AM 44.8 °F 38.0 °F 41.2 °F 87% 29.70 in 2.0 mi West 15.0 mph 20.7 mph N/A Rain Light Rain
9:37 AM 45.0 °F 38.5 °F 41.9 °F 89% 29.70 in 2.0 mi WNW 13.8 mph 17.3 mph N/A Rain Light Rain
9:55 AM 45.5 °F 40.8 °F 42.1 °F 88% 29.71 in 2.0 mi WNW 9.2 mph 17.3 mph N/A Rain Light Rain
10:15 AM 45.7 °F 41.0 °F 42.6 °F 89% 29.71 in 5.0 mi West 9.2 mph - N/A   Light Drizzle
10:35 AM 46.4 °F 41.5 °F 43.0 °F 88% 29.72 in 10.0 mi West 10.4 mph 16.1 mph N/A   Overcast
10:58 AM 46.9 °F - 43.3 °F 87% 29.72 in 5.0 mi WNW 10.4 mph 18.4 mph N/A   Overcast
11:16 AM 47.3 °F - 43.3 °F 86% 29.73 in 3.0 mi WNW 9.2 mph 17.3 mph N/A   Drizzle
11:35 AM 47.3 °F - 43.3 °F 86% 29.73 in 5.0 mi WNW 8.1 mph 20.7 mph N/A   Light Drizzle
11:36 AM 47.3 °F - 43.3 °F 86% 29.73 in 5.0 mi WNW 10.4 mph 20.7 mph N/A   Light Drizzle
11:55 AM 48.2 °F - 43.7 °F 84% 29.73 in 10.0 mi WNW 10.4 mph 18.4 mph N/A   Overcast
11:56 AM 48.2 °F - 43.7 °F 84% 29.73 in 10.0 mi WNW 11.5 mph 17.3 mph N/A   Overcast
12:19 PM 48.4 °F - 43.7 °F 84% 29.74 in 5.0 mi NW 10.4 mph 19.6 mph N/A   Overcast
12:36 PM 48.6 °F - 43.7 °F 83% 29.74 in 7.0 mi WNW 10.4 mph 25.3 mph N/A   Overcast
12:55 PM 49.3 °F - 43.5 °F 81% 29.74 in 10.0 mi WNW 16.1 mph 27.6 mph N/A   Overcast
12:56 PM 49.3 °F - 43.5 °F 81% 29.74 in 10.0 mi WNW 16.1 mph 27.6 mph N/A   Overcast
1:15 PM 49.1 °F - 43.5 °F 81% 29.74 in 5.0 mi WNW 11.5 mph 24.2 mph N/A Rain Light Rain
1:35 PM 48.7 °F - 44.1 °F 84% 29.74 in 4.0 mi NW 13.8 mph 23.0 mph N/A Rain Light Rain
1:58 PM 48.6 °F - 43.7 °F 83% 29.75 in 4.0 mi NW 13.8 mph 26.5 mph N/A Rain Rain
2:16 PM 48.4 °F - 43.5 °F 83% 29.76 in 5.0 mi NW 16.1 mph 25.3 mph N/A   Light Drizzle
2:35 PM 48.4 °F - 43.2 °F 82% 29.76 in 10.0 mi NW 15.0 mph 24.2 mph N/A   Overcast
2:36 PM 48.4 °F - 43.0 °F 82% 29.76 in 10.0 mi NW 15.0 mph 24.2 mph N/A   Overcast
2:55 PM 49.1 °F - 42.8 °F 79% 29.76 in 10.0 mi NW 17.3 mph 24.2 mph N/A   Overcast
2:56 PM 49.1 °F - 42.8 °F 79% 29.76 in 10.0 mi NW 16.1 mph 24.2 mph N/A   Overcast
3:19 PM 49.5 °F - 42.1 °F 76% 29.77 in 10.0 mi NW 16.1 mph 27.6 mph N/A   Overcast
3:37 PM 49.6 °F - 41.5 °F 74% 29.77 in 10.0 mi NW 15.0 mph 24.2 mph N/A Rain Light Rain
3:55 PM 49.5 °F - 41.4 °F 74% 29.78 in 10.0 mi NW 17.3 mph 26.5 mph N/A   Overcast
3:56 PM 49.6 °F - 41.2 °F 73% 29.78 in 10.0 mi NNW 19.6 mph 31.1 mph N/A   Overcast
4:15 PM 48.6 °F - 41.9 °F 78% 29.79 in 4.0 mi NW 16.1 mph 27.6 mph N/A Rain Light Rain
4:16 PM 48.6 °F - 41.9 °F 78% 29.79 in 4.0 mi NW 19.6 mph 27.6 mph N/A Rain Light Rain
4:35 PM 48.4 °F - 42.4 °F 80% 29.80 in 10.0 mi NW 12.7 mph 24.2 mph N/A Rain Light Rain
4:58 PM 48.2 °F - 42.3 °F 80% 29.81 in 7.0 mi NW 16.1 mph 20.7 mph N/A Rain Light Rain
5:16 PM 47.7 °F - 42.8 °F 83% 29.82 in 4.0 mi NNW 11.5 mph 18.4 mph N/A Rain Light Rain
5:35 PM 47.5 °F - 43.0 °F 84% 29.83 in 5.0 mi NNW 12.7 mph 21.9 mph N/A Rain Light Rain
5:36 PM 47.5 °F - 43.0 °F 84% 29.83 in 5.0 mi NNW 12.7 mph 21.9 mph N/A Rain Light Rain
5:55 PM 47.7 °F - 42.8 °F 83% 29.83 in 10.0 mi NW 12.7 mph 19.6 mph N/A   Light Drizzle
5:56 PM 47.7 °F - 42.8 °F 83% 29.84 in 10.0 mi NW 12.7 mph 19.6 mph N/A   Light Drizzle
6:19 PM 47.8 °F - 41.9 °F 80% 29.84 in 10.0 mi NNW 12.7 mph 20.7 mph N/A   Overcast
6:37 PM 47.8 °F - 42.1 °F 80% 29.85 in 7.0 mi NNW 11.5 mph 16.1 mph N/A Rain Light Rain
6:55 PM 47.5 °F - 42.3 °F 82% 29.85 in 10.0 mi NNW 9.2 mph - N/A   Overcast
7:15 PM 46.9 °F - 42.6 °F 85% 29.86 in 7.0 mi NNW 12.7 mph 16.1 mph 0.01 in Rain Light Rain
7:16 PM 46.9 °F - 42.4 °F 84% 29.86 in 7.0 mi NNW 12.7 mph 16.1 mph 0.01 in Rain Light Rain
7:35 PM 47.1 °F - 41.9 °F 82% 29.87 in 10.0 mi NW 11.5 mph 20.7 mph 0.01 in   Overcast
7:58 PM 46.9 °F - 41.4 °F 81% 29.88 in 10.0 mi NNW 12.7 mph 19.6 mph 0.01 in Rain Light Rain
8:16 PM 46.8 °F - 41.5 °F 82% 29.89 in 10.0 mi NNW 15.0 mph 23.0 mph N/A Rain Rain
8:35 PM 46.9 °F - 41.0 °F 80% 29.89 in 10.0 mi NW 10.4 mph - N/A   Overcast
8:36 PM 46.8 °F - 41.0 °F 80% 29.89 in 10.0 mi NW 9.2 mph - N/A   Overcast
8:55 PM 46.9 °F - 40.1 °F 77% 29.90 in 10.0 mi NNW 15.0 mph 20.7 mph N/A   Overcast
8:56 PM 46.9 °F - 40.1 °F 77% 29.90 in 10.0 mi NNW 12.7 mph 20.7 mph N/A   Overcast
9:18 PM 46.4 °F 41.5 °F 39.4 °F 77% 29.91 in 10.0 mi NW 10.4 mph 19.6 mph N/A   Mostly Cloudy
9:37 PM 45.9 °F 40.0 °F 39.9 °F 80% 29.91 in 10.0 mi NW 12.7 mph 18.4 mph N/A   Scattered Clouds
9:55 PM 46.6 °F - 39.6 °F 77% 29.91 in 10.0 mi NNW 12.7 mph 18.4 mph N/A   Mostly Cloudy
9:56 PM 46.6 °F - 39.6 °F 77% 29.91 in 10.0 mi NNW 12.7 mph 18.4 mph N/A   Mostly Cloudy
10:15 PM 46.8 °F - 39.7 °F 77% 29.91 in 10.0 mi NNW 11.5 mph 18.4 mph N/A   Overcast
10:35 PM 46.6 °F - 40.3 °F 79% 29.92 in 10.0 mi NW 9.2 mph - N/A   Overcast
10:58 PM 46.6 °F - 40.3 °F 79% 29.92 in 10.0 mi NNW 9.2 mph - N/A   Overcast
11:16 PM 46.8 °F - 40.5 °F 79% 29.92 in 10.0 mi NW 8.1 mph - N/A   Overcast
11:35 PM 46.6 °F - 40.1 °F 78% 29.92 in 10.0 mi NW 9.2 mph - N/A   Overcast
11:55 PM 46.6 °F - 40.3 °F 79% 29.92 in 10.0 mi NW 8.1 mph - N/A   Overcast